This is the latest recevied weather packets stored in our database for station/object YM2KV-13. If no packets are shown the sender has not sent any weather packets the latest 10 day(s).
| Time | Temp. | Humidity | Pressure | Rain* | Wind** | Luminosity | Snow |
|---|---|---|---|---|---|---|---|
| 1777809584 | 12.22° C | 69% | 1022.5 hPa | - | - | - | - |
| 1777808984 | 12.22° C | 70% | 1022.6 hPa | - | - | - | - |
| 1777808384 | 12.22° C | 69% | 1022.6 hPa | - | - | - | - |
| 1777807784 | 12.78° C | 65% | 1022.5 hPa | - | - | - | - |
| 1777807184 | 13.33° C | 64% | 1022.8 hPa | - | - | - | - |
| 1777806584 | 13.89° C | 61% | 1022.9 hPa | - | - | - | - |
| 1777805984 | 14.44° C | 60% | 1022.8 hPa | - | - | - | - |
| 1777805384 | 14.44° C | 59% | 1023 hPa | - | - | - | - |
| 1777804784 | 14.44° C | 60% | 1022.9 hPa | - | - | - | - |
| 1777804184 | 13.89° C | 60% | 1023 hPa | - | - | - | - |
| 1777803584 | 13.33° C | 60% | 1023.2 hPa | - | - | - | - |
| 1777802984 | 13.89° C | 59% | 1023.3 hPa | - | - | - | - |
| 1777802384 | 13.33° C | 57% | 1023.1 hPa | - | - | - | - |
| 1777801784 | 13.89° C | 59% | 1023.3 hPa | - | - | - | - |
| 1777801184 | 13.89° C | 59% | 1023.5 hPa | - | - | - | - |
| 1777800584 | 13.89° C | 58% | 1023.6 hPa | - | - | - | - |
| 1777799983 | 14.44° C | 56% | 1023.6 hPa | - | - | - | - |
| 1777799384 | 15° C | 57% | 1023.6 hPa | - | - | - | - |
| 1777798783 | 15° C | 57% | 1023.6 hPa | - | - | - | - |
| 1777798183 | 14.44° C | 58% | 1023.7 hPa | - | - | - | - |
| 1777797583 | 14.44° C | 58% | 1023.8 hPa | - | - | - | - |
| 1777796983 | 13.89° C | 59% | 1023.8 hPa | - | - | - | - |
| 1777796383 | 13.33° C | 62% | 1024.1 hPa | - | - | - | - |
| 1777795783 | 13.89° C | 59% | 1024.2 hPa | - | - | - | - |
| 1777795183 | 14.44° C | 60% | 1024.3 hPa | - | - | - | - |
* Rain since midnight (hover to see other rain measurements)
** Current wind speed in m/s (hover to see current wind gust speed)